Regional Weather Roundup
Issued by NWS

Home | Current Version | Previous Version | Graphics & Text | Print | Product List | Glossary Off
Versions: 1 2 3 4 5 6 7 8 9 10 11 12 13 14 15 16 17 18 19 20 21 22 23 24 25 26 27 28 29 30 31 32 33 34 35 36 37 38 39 40 41 42 43 44 45 46 47 48 49 50

240
ASUS43 KDMX 230906
RWRIA

WEATHER ROUNDUP FOR IOWA
NATIONAL WEATHER SERVICE DES MOINES IA
300 AM CST TUE JAN 23 2018

NOTE: "FAIR" INDICATES FEW OR NO CLOUDS BELOW 12,000 FEET WITH NO
SIGNIFICANT WEATHER AND/OR OBSTRUCTIONS TO VISIBILITY.

* - THESE STATIONS ARE NOT NWS STATIONS...THUS NOT UNDER NWS
QUALITY CONTROL.  THEY ALSO DO NOT REPORT WEATHER SUCH
AS PRECIPITATION OR FOG.

IAZ001>003-012>014-020>022-031>034-043>046-231000-
   NORTHWEST IOWA

CITY           SKY/WX    TMP DP  RH WIND       PRES   REMARKS
CARROLL *      CLOUDY    28  25  86 N28G35    29.90R WCI  13
CHEROKEE *     CLOUDY    26  24  93 N15G21    29.95R WCI  14
DENISON *      CLOUDY    28  25  86 N17G28    29.94R WCI  16
LE MARS *      CLOUDY    25  23  93 NW14G20   30.00R WCI  13
ORANGE CITY *  CLOUDY    25  23  93 NW17G24   29.97R WCI  11
SHELDON *      CLOUDY    25  23  93 N22       29.95R WCI  10
SIOUX CITY     CLOUDY    24  23  96 N24       30.00R WCI   8
SPENCER        FLURRIES  26  22  84 NW24G31   29.93R WCI  11
STORM LAKE *   CLOUDY    27  23  86 N22G29    29.91R WCI  12
$$

IAZ055>058-069>071-079>083-090>094-231000-
   SOUTHWEST IOWA

CITY           SKY/WX    TMP DP  RH WIND       PRES   REMARKS
ATLANTIC *     CLOUDY    28  28 100 N18       29.91R WCI  16
AUDUBON *      CLOUDY    28  25  86 N21G29    29.91R WCI  15
CLARINDA *     CLOUDY    30  28  93 NW16G25   29.95R WCI  19
COUNCIL BLFS * CLOUDY    27  27 100 N20G26    29.95R WCI  13
CRESTON *      MIX PCPN  30  27  86 N26G35    29.87R WCI  16
HARLAN  *      CLOUDY    28  28 100 N28       29.95R WCI  13
LAMONI         CLOUDY    30  24  78 N21G33    29.84R WCI  17
RED OAK *      CLOUDY    30  27  86 NW17G24   29.94R WCI  18
SHENANDOAH *   CLOUDY    30  27  86 NW15G22   29.97R WCI  19
$$

IAZ047>049-059>061-072>074-084-231000-
   CENTRAL IOWA

CITY           SKY/WX    TMP DP  RH WIND       PRES   REMARKS
AMES           CLOUDY    29  28  96 N20G26    29.84R WCI  16
ANKENY *       CLOUDY    30  25  80 NW18G26   29.84R WCI  18
BOONE *        CLOUDY    28  27  93 N20G26    29.84R WCI  15
CHARITON *     MIX PCPN  30  27  86 NW23G30   29.80R WCI  17
DES MOINES     CLOUDY    30  24  78 N16G26    29.83R WCI  19
GRINNELL*      CLOUDY    29  26  90 NW20G30   29.76R WCI  16
KNOXVILLE *    CLOUDY    30  25  80 NW18      29.78R WCI  18
MARSHALLTOWN   CLOUDY    28  25  88 N24G35    29.79R WCI  14
NEWTON *       CLOUDY    28  27  93 N21G30    29.79R WCI  15
PELLA *        CLOUDY    30  26  86 N20G25    29.80R WCI  17
PERRY *        CLOUDY    30  26  86 N20G29    29.88R WCI  17
$$

IAZ004>006-015-016-023>025-035-036-231000-
   NORTH CENTRAL IOWA

CITY           SKY/WX    TMP DP  RH WIND       PRES   REMARKS
ALGONA *       MOCLDY    25 N/A N/A N21G30    29.86R FOG     WCI  10
CLARION *      CLOUDY    28  28 100 N23G30    29.84R WCI  14
ESTHERVILLE    CLOUDY    23  22  96 N24G33    29.89R FOG     WCI   7
FORT DODGE *   CLOUDY    27  24  89 N13G24    29.87R WCI  16
MASON CITY     MIX PCPN  26  22  84 NW23      29.82R WCI  11
FOREST CITY *  CLOUDY    28  25  86 N20G32    29.83R WCI  15
WEBSTER CITY * CLOUDY    28  25  86 N24G33    29.83R WCI  14
IOWA FALLS *   LGT SNOW  29  26  89 NW23G30   29.81R WCI  15
$$

IAZ007>011-017>019-026>030-037>042-050>054-066-231000-
   NORTHEAST IOWA

CITY           SKY/WX    TMP DP  RH WIND       PRES   REMARKS
CEDAR RAPIDS   LGT RAIN  33  29  85 NW20G28   29.68R WCI  21
CHARLES CITY * CLOUDY    27  28 100 N18G29    29.77R WCI  13
CLINTON *      MIX PCPN  34  33  96 NW10      29.62R WCI  26
DECORAH *      LGT RAIN  27  25  93 N18G26    29.70R WCI  13
DUBUQUE        FRZ RAIN  32  30  92 N13       29.62R FOG     WCI  22
MONTICELLO *   MIX PCPN  34  32  93 N14G25    29.65R WCI  24
OELWEIN *      CLOUDY    28  28 100 N21G28    29.71R WCI  15
WATERLOO       CLOUDY    27  23  85 N21G33    29.74R WCI  13
$$

IAZ064-065-067-068-078-231000-
   EAST CENTRAL IOWA

CITY           SKY/WX    TMP DP  RH WIND       PRES   REMARKS
DAVENPORT      MIX PCPN  35  32  88 NW10      29.64R WCI  27
IOWA CITY      CLOUDY    35  31  85 NW16G23   29.69R FOG     WCI  25
MT. PLEASANT * CLOUDY    34  34 100 NW14G21   29.68R WCI  24
MUSCATINE *    CLOUDY    36  32  87 NW16G23   29.66R WCI  26
QUAD CITIES    CLOUDY    36  34  92 NW9G20    29.62R WCI  29
$$

IAZ062-063-075>077-085>089-095>099-231000-
   SOUTHEAST IOWA

CITY           SKY/WX    TMP DP  RH WIND       PRES   REMARKS
BURLINGTON     CLOUDY    36  33  89 NW13G20   29.65R WCI  27
FAIRFIELD *    CLOUDY    32  30  93 NW18G26   29.70R WCI  20
FORT MADISON * CLOUDY    36  36 100 NW17G25   29.68R WCI  25
KEOKUK *       MIX PCPN  36  36 100 NW17G25   29.68R WCI  25
OSKALOOSA *    CLOUDY    30  28  89 NW21G30   29.77R WCI  18
OTTUMWA        CLOUDY    31  27  85 NW22G29   29.75R WCI  18
WASHINGTON *   CLOUDY    34  34 100 NW21G26   29.70R WCI  22
$$

ABBREVIATIONS USED IN REMARKS
   TC - TEMPERATURES IN CELSIUS
  WCI - WIND CHILL INDEX
   HX - HEAT INDEX
  VSB - VISIBILITY
$$





USA.gov is the U.S. government's official web portal to all federal, state and local government web resources and services.